Time,TemperatureF,DewpointF,PressureIn,WindDirection,WindDirectionDegrees,WindSpeedMPH,WindSpeedGustMPH,Humidity,HourlyPrecipIn,Conditions,Clouds,dailyrainin,SoftwareType,DateUTC
2013-02-21 00:02:00,22.0,18.0,30.33,West,279,6.0,9.0,83,0.00,,,0.00,,2013-02-21 05:02:00,
2013-02-21 00:12:00,22.0,18.0,30.33,West,279,6.0,9.0,83,0.00,,,0.00,,2013-02-21 05:12:00,
2013-02-21 00:22:00,22.0,17.0,30.32,NW,304,8.0,12.0,81,0.00,,,0.00,,2013-02-21 05:22:00,
2013-02-21 00:35:00,22.0,17.0,30.32,WNW,296,5.0,12.0,80,0.00,,,0.00,,2013-02-21 05:35:00,
2013-02-21 00:46:00,22.0,17.0,30.32,WNW,296,5.0,12.0,80,0.00,,,0.00,,2013-02-21 05:46:00,
2013-02-21 01:00:00,22.0,16.0,30.32,West,275,7.0,13.0,79,0.00,,,0.00,,2013-02-21 06:00:00,
2013-02-21 01:01:00,22.0,16.0,30.33,WSW,249,3.0,12.0,78,0.00,,,0.00,,2013-02-21 06:01:00,
2013-02-21 01:11:00,22.0,16.0,30.33,WSW,249,3.0,12.0,78,0.00,,,0.00,,2013-02-21 06:11:00,
2013-02-21 01:21:00,22.0,16.0,30.34,WNW,284,5.0,10.0,78,0.00,,,0.00,,2013-02-21 06:21:00,
2013-02-21 01:31:00,22.0,16.0,30.34,WNW,284,5.0,10.0,78,0.00,,,0.00,,2013-02-21 06:31:00,
2013-02-21 01:41:00,22.0,16.0,30.33,West,277,7.0,11.0,78,0.00,,,0.00,,2013-02-21 06:41:00,
2013-02-21 01:51:00,22.0,16.0,30.33,West,277,7.0,11.0,78,0.00,,,0.00,,2013-02-21 06:51:00,
2013-02-21 02:01:00,22.0,16.0,30.34,WSW,240,5.0,13.0,77,0.00,,,0.00,,2013-02-21 07:01:00,
2013-02-21 02:11:00,22.0,16.0,30.34,WSW,254,6.0,10.0,77,0.00,,,0.00,,2013-02-21 07:11:00,
2013-02-21 02:21:00,22.0,16.0,30.34,WSW,254,6.0,10.0,77,0.00,,,0.00,,2013-02-21 07:21:00,
2013-02-21 02:32:00,22.0,16.0,30.34,West,261,3.0,7.0,78,0.00,,,0.00,,2013-02-21 07:32:00,
2013-02-21 02:42:00,22.0,16.0,30.34,West,263,4.0,9.0,78,0.00,,,0.00,,2013-02-21 07:42:00,
2013-02-21 02:52:00,22.0,16.0,30.34,West,263,4.0,9.0,78,0.00,,,0.00,,2013-02-21 07:52:00,
2013-02-21 03:01:00,22.0,16.0,30.34,WSW,251,5.0,12.0,78,0.00,,,0.00,,2013-02-21 08:01:00,
2013-02-21 03:11:00,22.0,16.0,30.34,West,279,2.0,9.0,78,0.00,,,0.00,,2013-02-21 08:11:00,
2013-02-21 03:21:00,22.0,16.0,30.34,West,279,2.0,9.0,78,0.00,,,0.00,,2013-02-21 08:21:00,
2013-02-21 03:32:00,22.0,16.0,30.35,West,275,2.0,6.0,78,0.00,,,0.00,,2013-02-21 08:32:00,
2013-02-21 03:42:00,22.0,16.0,30.35,West,275,2.0,6.0,78,0.00,,,0.00,,2013-02-21 08:42:00,
2013-02-21 03:52:00,22.0,16.0,30.35,WNW,303,7.0,14.0,78,0.00,,,0.00,,2013-02-21 08:52:00,
2013-02-21 04:01:00,22.0,16.0,30.35,WNW,293,4.0,11.0,78,0.00,,,0.00,,2013-02-21 09:01:00,
2013-02-21 04:11:00,22.0,16.0,30.35,WNW,293,4.0,11.0,78,0.00,,,0.00,,2013-02-21 09:11:00,
2013-02-21 04:22:00,22.0,16.0,30.35,WSW,256,5.0,11.0,78,0.00,,,0.00,,2013-02-21 09:22:00,
2013-02-21 04:32:00,22.0,16.0,30.34,WNW,284,5.0,10.0,78,0.00,,,0.00,,2013-02-21 09:32:00,
2013-02-21 04:42:00,22.0,16.0,30.34,West,268,7.0,11.0,78,0.00,,,0.00,,2013-02-21 09:42:00,
2013-02-21 04:51:00,22.0,16.0,30.34,West,268,7.0,11.0,78,0.00,,,0.00,,2013-02-21 09:51:00,
2013-02-21 05:01:00,22.0,16.0,30.35,WNW,290,7.0,10.0,78,0.00,,,0.00,,2013-02-21 10:01:00,
2013-02-21 05:11:00,22.0,16.0,30.35,WNW,290,7.0,10.0,78,0.00,,,0.00,,2013-02-21 10:11:00,
2013-02-21 05:21:00,22.0,16.0,30.35,WNW,283,4.0,7.0,78,0.00,,,0.00,,2013-02-21 10:21:00,
2013-02-21 05:31:00,22.0,16.0,30.35,West,271,5.0,9.0,79,0.00,,,0.00,,2013-02-21 10:31:00,
2013-02-21 05:41:00,22.0,16.0,30.35,West,271,5.0,9.0,79,0.00,,,0.00,,2013-02-21 10:41:00,
2013-02-21 05:51:00,22.0,16.0,30.35,West,281,4.0,11.0,79,0.00,,,0.00,,2013-02-21 10:51:00,
2013-02-21 06:01:00,22.0,16.0,30.36,WNW,291,3.0,10.0,79,0.00,,,0.00,,2013-02-21 11:01:00,
2013-02-21 06:11:00,22.0,16.0,30.36,WNW,291,3.0,10.0,79,0.00,,,0.00,,2013-02-21 11:11:00,
2013-02-21 06:21:00,22.0,16.0,30.36,WNW,291,3.0,10.0,79,0.00,,,0.00,,2013-02-21 11:21:00,
2013-02-21 06:31:00,22.0,16.0,30.36,WNW,292,3.0,9.0,79,0.00,,,0.00,,2013-02-21 11:31:00,
2013-02-21 06:41:00,22.0,16.0,30.36,WNW,292,3.0,9.0,79,0.00,,,0.00,,2013-02-21 11:41:00,
2013-02-21 06:52:00,22.0,16.0,30.36,West,260,4.0,8.0,79,0.00,,,0.00,,2013-02-21 11:52:00,
2013-02-21 07:01:00,22.0,16.0,30.37,WSW,238,2.0,5.0,79,0.00,,,0.00,,2013-02-21 12:01:00,
2013-02-21 07:11:00,22.0,16.0,30.37,WSW,238,2.0,5.0,79,0.00,,,0.00,,2013-02-21 12:11:00,
2013-02-21 07:21:00,22.0,16.0,30.38,West,267,4.0,7.0,79,0.00,,,0.00,,2013-02-21 12:21:00,
2013-02-21 07:32:00,22.0,16.0,30.38,WSW,255,2.0,5.0,79,0.00,,,0.00,,2013-02-21 12:32:00,
2013-02-21 07:42:00,22.0,16.0,30.39,WNW,291,4.0,8.0,79,0.00,,,0.00,,2013-02-21 12:42:00,
2013-02-21 07:53:00,22.0,16.0,30.39,WNW,291,4.0,8.0,79,0.00,,,0.00,,2013-02-21 12:53:00,
2013-02-21 08:02:00,22.0,16.0,30.41,SW,219,2.0,7.0,79,0.00,,,0.00,,2013-02-21 13:02:00,
2013-02-21 08:12:00,22.0,16.0,30.41,SW,219,2.0,7.0,79,0.00,,,0.00,,2013-02-21 13:12:00,
2013-02-21 08:22:00,22.0,17.0,30.38,NNW,327,9.0,12.0,80,0.00,,,0.00,,2013-02-21 13:22:00,
2013-02-21 08:32:00,22.0,16.0,30.38,NNW,346,6.0,13.0,79,0.00,,,0.00,,2013-02-21 13:32:00,
2013-02-21 08:42:00,22.0,16.0,30.38,NNW,346,6.0,13.0,79,0.00,,,0.00,,2013-02-21 13:42:00,
2013-02-21 08:52:00,22.0,16.0,30.39,WNW,283,3.0,10.0,78,0.00,,,0.00,,2013-02-21 13:52:00,
2013-02-21 09:02:00,22.0,16.0,30.39,WNW,283,3.0,10.0,78,0.00,,,0.00,,2013-02-21 14:02:00,
2013-02-21 09:11:00,22.0,16.0,30.39,WNW,283,3.0,10.0,78,0.00,,,0.00,,2013-02-21 14:11:00,
2013-02-21 09:22:00,23.0,17.0,30.40,West,279,2.0,4.0,78,0.00,,,0.00,,2013-02-21 14:22:00,
2013-02-21 09:32:00,23.0,17.0,30.40,WNW,301,3.0,5.0,78,0.00,,,0.00,,2013-02-21 14:32:00,
2013-02-21 09:42:00,24.0,18.0,30.40,WNW,299,4.0,7.0,78,0.00,,,0.00,,2013-02-21 14:42:00,
2013-02-21 09:52:00,24.0,18.0,30.40,WNW,299,4.0,7.0,78,0.00,,,0.00,,2013-02-21 14:52:00,
2013-02-21 10:02:00,24.0,18.0,30.39,NNE,21,4.0,7.0,77,0.00,,,0.00,,2013-02-21 15:02:00,
2013-02-21 10:12:00,24.0,18.0,30.39,NNE,21,4.0,7.0,77,0.00,,,0.00,,2013-02-21 15:12:00,
2013-02-21 10:21:00,25.0,19.0,30.41,North,10,4.0,7.0,76,0.00,,,0.00,,2013-02-21 15:21:00,
2013-02-21 10:32:00,25.0,19.0,30.41,North,10,4.0,7.0,76,0.00,,,0.00,,2013-02-21 15:32:00,
2013-02-21 10:42:00,25.0,19.0,30.41,North,10,4.0,7.0,76,0.00,,,0.00,,2013-02-21 15:42:00,
2013-02-21 10:52:00,25.0,18.0,30.41,WNW,286,2.0,5.0,75,0.00,,,0.00,,2013-02-21 15:52:00,
2013-02-21 11:01:00,25.0,18.0,30.40,North,9,3.0,5.0,75,0.00,,,0.00,,2013-02-21 16:01:00,
2013-02-21 11:12:00,26.0,19.0,30.41,NNE,13,3.0,7.0,74,0.00,,,0.00,,2013-02-21 16:12:00,
2013-02-21 11:22:00,26.0,19.0,30.41,NNE,13,3.0,7.0,74,0.00,,,0.00,,2013-02-21 16:22:00,
2013-02-21 11:32:00,26.0,19.0,30.40,North,355,7.0,10.0,74,0.00,,,0.00,,2013-02-21 16:32:00,
2013-02-21 11:42:00,26.0,19.0,30.40,North,355,7.0,10.0,74,0.00,,,0.00,,2013-02-21 16:42:00,
2013-02-21 11:52:00,26.0,19.0,30.40,North,355,7.0,10.0,74,0.00,,,0.00,,2013-02-21 16:52:00,
2013-02-21 12:01:00,26.0,19.0,30.40,North,355,7.0,10.0,74,0.00,,,0.00,,2013-02-21 17:01:00,
2013-02-21 12:11:00,25.0,18.0,30.39,NE,38,4.0,12.0,74,0.00,,,0.00,,2013-02-21 17:11:00,
2013-02-21 12:22:00,25.0,18.0,30.39,NE,38,4.0,12.0,74,0.00,,,0.00,,2013-02-21 17:22:00,
2013-02-21 12:32:00,25.0,18.0,30.41,NNE,30,4.0,7.0,74,0.00,,,0.00,,2013-02-21 17:32:00,
2013-02-21 12:42:00,25.0,18.0,30.41,NNE,30,4.0,7.0,74,0.00,,,0.00,,2013-02-21 17:42:00,
2013-02-21 12:52:00,26.0,19.0,30.41,NNE,17,5.0,7.0,74,0.00,,,0.00,,2013-02-21 17:52:00,
2013-02-21 13:02:00,27.0,20.0,30.41,NNW,332,3.0,8.0,73,0.00,,,0.00,,2013-02-21 18:02:00,
2013-02-21 13:12:00,27.0,20.0,30.41,NNW,332,3.0,8.0,73,0.00,,,0.00,,2013-02-21 18:12:00,
2013-02-21 13:22:00,29.0,21.0,30.39,North,360,2.0,7.0,71,0.00,,,0.00,,2013-02-21 18:22:00,
2013-02-21 13:32:00,30.0,21.0,30.37,North,10,6.0,11.0,69,0.00,,,0.00,,2013-02-21 18:32:00,
2013-02-21 13:52:00,29.0,20.0,30.36,North,9,8.0,12.0,69,0.00,,,0.00,,2013-02-21 18:52:00,
2013-02-21 14:01:00,30.0,21.0,30.35,NNE,28,11.0,14.0,68,0.00,,,0.00,,2013-02-21 19:01:00,
2013-02-21 14:21:00,28.0,20.0,30.33,NNE,19,11.0,16.0,71,0.00,,,0.00,,2013-02-21 19:21:00,
2013-02-21 14:32:00,31.0,22.0,30.33,North,11,11.0,14.0,69,0.00,,,0.00,,2013-02-21 19:32:00,
2013-02-21 14:52:00,29.0,20.0,30.34,NNE,19,9.0,13.0,69,0.00,,,0.00,,2013-02-21 19:52:00,
2013-02-21 15:01:00,28.0,20.0,30.32,North,9,12.0,16.0,71,0.00,,,0.00,,2013-02-21 20:01:00,
2013-02-21 15:11:00,30.0,21.0,30.30,NNE,13,11.0,17.0,70,0.00,,,0.00,,2013-02-21 20:11:00,
2013-02-21 15:21:00,30.0,21.0,30.30,NNE,13,11.0,17.0,70,0.00,,,0.00,,2013-02-21 20:21:00,
2013-02-21 15:32:00,30.0,21.0,30.28,NNE,18,14.0,19.0,69,0.00,,,0.00,,2013-02-21 20:32:00,
2013-02-21 15:53:00,29.0,21.0,30.29,NNE,18,12.0,17.0,72,0.00,,,0.00,,2013-02-21 20:53:00,
2013-02-21 16:02:00,29.0,21.0,30.30,NNE,28,12.0,17.0,71,0.00,,,0.00,,2013-02-21 21:02:00,
2013-02-21 16:12:00,27.0,20.0,30.32,NNE,28,10.0,15.0,74,0.00,,,0.00,,2013-02-21 21:12:00,
2013-02-21 16:22:00,27.0,20.0,30.32,NNE,28,10.0,15.0,74,0.00,,,0.00,,2013-02-21 21:22:00,
2013-02-21 16:32:00,27.0,20.0,30.32,NNE,28,10.0,15.0,74,0.00,,,0.00,,2013-02-21 21:32:00,
2013-02-21 16:42:00,27.0,20.0,30.32,NE,51,13.0,16.0,75,0.00,,,0.00,,2013-02-21 21:42:00,
2013-02-21 16:52:00,27.0,20.0,30.32,NE,51,13.0,16.0,75,0.00,,,0.00,,2013-02-21 21:52:00,
2013-02-21 17:01:00,27.0,20.0,30.32,NE,52,12.0,15.0,76,0.00,,,0.00,,2013-02-21 22:01:00,
2013-02-21 17:11:00,27.0,20.0,30.32,NE,52,12.0,15.0,76,0.00,,,0.00,,2013-02-21 22:11:00,
2013-02-21 17:21:00,27.0,20.0,30.32,NNE,28,13.0,17.0,76,0.00,,,0.00,,2013-02-21 22:21:00,
2013-02-21 17:32:00,27.0,21.0,30.33,NNE,24,12.0,17.0,77,0.00,,,0.00,,2013-02-21 22:32:00,
2013-02-21 17:42:00,27.0,21.0,30.33,NNE,24,12.0,17.0,77,0.00,,,0.00,,2013-02-21 22:42:00,
2013-02-21 17:52:00,27.0,21.0,30.33,NNE,24,12.0,17.0,77,0.00,,,0.00,,2013-02-21 22:52:00,
2013-02-21 18:01:00,27.0,21.0,30.33,NNE,24,12.0,17.0,77,0.00,,,0.00,,2013-02-21 23:01:00,
2013-02-21 18:21:00,26.0,21.0,30.34,NE,44,12.0,15.0,80,0.00,,,0.00,,2013-02-21 23:21:00,
2013-02-21 18:32:00,26.0,21.0,30.34,NE,44,12.0,15.0,80,0.00,,,0.00,,2013-02-21 23:32:00,
2013-02-21 18:42:00,26.0,21.0,30.34,NE,44,12.0,15.0,80,0.00,,,0.00,,2013-02-21 23:42:00,
2013-02-21 18:52:00,25.0,20.0,30.32,NNE,22,14.0,19.0,81,0.00,,,0.00,,2013-02-21 23:52:00,
2013-02-21 19:01:00,25.0,20.0,30.30,NNE,28,16.0,21.0,81,0.00,,,0.00,,2013-02-22 00:01:00,
2013-02-21 19:11:00,25.0,20.0,30.30,NNE,28,16.0,21.0,81,0.00,,,0.00,,2013-02-22 00:11:00,
2013-02-21 19:22:00,25.0,20.0,30.31,NNE,19,12.0,18.0,81,0.00,,,0.00,,2013-02-22 00:22:00,
2013-02-21 19:32:00,25.0,20.0,30.31,NNE,19,12.0,18.0,81,0.00,,,0.00,,2013-02-22 00:32:00,
2013-02-21 19:42:00,25.0,20.0,30.31,NNE,19,12.0,18.0,81,0.00,,,0.00,,2013-02-22 00:42:00,
2013-02-21 19:52:00,25.0,19.0,30.32,NE,37,12.0,17.0,79,0.00,,,0.00,,2013-02-22 00:52:00,
2013-02-21 20:01:00,24.0,18.0,30.32,NE,52,14.0,19.0,79,0.00,,,0.00,,2013-02-22 01:01:00,
2013-02-21 20:11:00,24.0,18.0,30.32,NE,52,14.0,19.0,79,0.00,,,0.00,,2013-02-22 01:11:00,
2013-02-21 20:22:00,24.0,18.0,30.31,NNE,32,12.0,19.0,79,0.00,,,0.00,,2013-02-22 01:22:00,
2013-02-21 20:32:00,24.0,19.0,30.30,NNE,24,14.0,18.0,80,0.00,,,0.00,,2013-02-22 01:32:00,
2013-02-21 20:42:00,24.0,19.0,30.30,NNE,24,14.0,18.0,80,0.00,,,0.00,,2013-02-22 01:42:00,
2013-02-21 20:52:00,24.0,19.0,30.28,NE,46,13.0,23.0,80,0.00,,,0.00,,2013-02-22 01:52:00,
2013-02-21 21:02:00,23.0,18.0,30.27,NNE,19,17.0,22.0,81,0.00,,,0.00,,2013-02-22 02:02:00,
2013-02-21 21:11:00,23.0,18.0,30.26,NNE,21,17.0,22.0,82,0.00,,,0.00,,2013-02-22 02:11:00,
2013-02-21 21:21:00,23.0,18.0,30.26,NNE,21,17.0,22.0,82,0.00,,,0.00,,2013-02-22 02:21:00,
2013-02-21 21:32:00,23.0,18.0,30.27,NNE,32,16.0,21.0,81,0.00,,,0.00,,2013-02-22 02:32:00,
2013-02-21 21:42:00,23.0,18.0,30.27,NNE,24,11.0,18.0,81,0.00,,,0.00,,2013-02-22 02:42:00,
2013-02-21 21:52:00,23.0,18.0,30.27,NNE,24,11.0,18.0,81,0.00,,,0.00,,2013-02-22 02:52:00,
2013-02-21 22:02:00,23.0,18.0,30.27,NNE,24,11.0,18.0,81,0.00,,,0.00,,2013-02-22 03:02:00,
2013-02-21 22:11:00,23.0,18.0,30.29,NE,55,11.0,16.0,81,0.00,,,0.00,,2013-02-22 03:11:00,
2013-02-21 22:21:00,23.0,18.0,30.29,NE,55,11.0,16.0,81,0.00,,,0.00,,2013-02-22 03:21:00,
2013-02-21 22:32:00,23.0,18.0,30.28,NE,44,10.0,14.0,81,0.00,,,0.00,,2013-02-22 03:32:00,
2013-02-21 22:42:00,23.0,18.0,30.28,NE,44,10.0,14.0,81,0.00,,,0.00,,2013-02-22 03:42:00,
2013-02-21 22:51:00,23.0,18.0,30.27,NE,49,12.0,16.0,81,0.00,,,0.00,,2013-02-22 03:51:00,
2013-02-21 23:02:00,23.0,18.0,30.25,NE,45,12.0,18.0,81,0.00,,,0.00,,2013-02-22 04:02:00,
2013-02-21 23:11:00,23.0,18.0,30.24,NE,52,10.0,15.0,81,0.00,,,0.00,,2013-02-22 04:11:00,
2013-02-21 23:21:00,23.0,18.0,30.24,NE,52,10.0,15.0,81,0.00,,,0.00,,2013-02-22 04:21:00,
2013-02-21 23:32:00,24.0,19.0,30.24,NE,36,13.0,17.0,81,0.00,,,0.00,,2013-02-22 04:32:00,
2013-02-21 23:42:00,24.0,19.0,30.22,NE,44,15.0,20.0,80,0.00,,,0.00,,2013-02-22 04:42:00,
2013-02-21 23:52:00,24.0,19.0,30.22,NE,44,15.0,20.0,80,0.00,,,0.00,,2013-02-22 04:52:00,